User: anonymous   Login
Location: Ostrava
(49.8330°N, 18.2830°E)
Time: 20:03:03
(UTC+02:00)
Language:

Explorer 7 - Orbit

View from above orbital plane
View from above orbital plane
View from above satellite
View from above satellite

Ground track
Ground track

The orbit data is extracted from the following two-line orbital elements,

1 00022U 59009A   14296.80814941  .00005864  00000-0  50595-3 0   614
2 00022 050.2863 045.1797 0153127 310.3016 048.4630 14.89935392916820
Epoch (UTC): 23 October 2014 19:23:44
Eccentricity: 0.0153127
inclination: 50.2863°
perigee height: 491 km
apogee height: 705 km
right ascension of ascending node: 45.1797°
argument of perigee: 310.3016°
revolutions per day: 14.89935392
mean anomaly at epoch: 48.4630°
orbit number at epoch: 91682

The dashed part of the orbit path shows where the satellite is in the earth's shadow,  

DLR